Temp_Advection
nan nan nan nan nan nan nan nan nan nan nan nan nan nan nan nan nan nan nan nan nan nan nan nan nan nan nan nan nan nan nan nan nan nan nan nan nan nan
nan 1 1 0 0 0 -0 0 0 0 0 0 1 0 0 1 1 1 1 2 2 2 1 1 1 1 1 1 1 1 1 0 -1 -1 -1 0 0 nan
nan 1 1 1 1 0 0 0 0 0 0 1 0 1 1 2 2 2 2 2 1 1 1 1 1 1 1 0 1 1 1 -0 -0 1 0 1 1 nan
nan 1 1 1 1 1 1 1 1 0 0 0 0 0 1 1 1 2 2 1 0 1 1 1 1 1 1 1 1 1 1 1 1 -0 1 1 1 nan
nan 1 1 1 1 1 1 1 1 1 1 1 1 0 0 0 0 1 1 1 2 1 1 1 2 2 1 1 1 1 1 0 0 1 1 0 1 nan
nan 1 1 1 1 1 1 1 1 1 1 1 1 1 1 1 1 1 1 1 2 2 2 2 2 2 1 2 1 1 1 1 0 0 0 0 0 nan
nan 1 1 1 1 1 1 1 1 1 1 1 1 1 1 1 1 1 1 1 1 2 2 2 2 1 1 1 2 1 -0 1 0 0 1 0 0 nan
nan 0 1 1 1 1 0 0 0 1 1 0 1 1 1 1 1 1 1 1 1 1 1 2 1 1 1 1 1 0 2 1 -0 1 0 0 0 nan
nan 0 0 0 0 1 1 0 0 0 0 0 0 0 0 0 0 0 1 1 1 1 1 1 1 1 1 1 1 1 2 1 0 -0 -0 1 1 nan
nan 0 0 0 1 0 0 0 0 0 0 0 0 0 0 0 0 0 0 0 0 1 1 0 0 0 0 0 1 2 1 1 0 0 1 0 0 nan
nan 0 0 0 0 0 0 0 0 0 0 0 0 0 0 0 0 0 0 0 0 0 0 0 0 0 0 0 1 2 1 0 0 -0 -1 0 1 nan
nan 0 0 0 0 0 0 0 0 0 0 0 0 0 0 0 0 0 0 0 0 -0 -0 0 0 0 -0 -0 0 1 1 0 0 -0 0 0 0 nan
nan 0 0 0 0 0 0 0 0 0 0 0 0 0 0 -0 -0 0 0 0 0 -0 -0 -0 -0 0 0 -0 -0 1 1 -0 -1 0 0 0 0 nan
nan 0 0 0 0 0 0 0 0 0 0 0 0 0 0 0 0 0 -0 -0 0 0 0 -0 -0 -0 0 0 -0 -0 0 0 0 0 -0 -0 -0 nan
nan 0 0 0 0 0 0 0 0 0 0 0 0 0 0 0 -0 0 0 0 -0 -0 0 0 -0 -0 -0 -0 -0 -1 -0 0 0 0 -0 -0 -0 nan
nan 0 0 0 0 0 0 0 0 0 0 0 0 0 0 -0 -0 -0 -0 -0 -0 -0 -0 0 0 0 -0 -0 -0 -0 -0 -0 -0 -0 0 1 1 nan
nan 0 0 0 0 0 0 -0 -0 -0 0 0 0 -0 -0 -0 -0 -0 -0 -0 -0 -0 -0 -0 -0 0 0 -0 0 -0 -0 0 0 0 0 -0 -0 nan
nan 0 0 0 0 0 0 0 -0 -0 -0 -0 -0 -0 -0 -0 -0 -0 -0 -0 -0 -0 -0 -0 -0 -0 -0 -0 0 0 0 0 0 0 0 0 -0 nan
nan 0 0 0 0 0 0 0 0 -0 -0 -0 -0 -0 -0 -0 -0 -0 -0 -0 -0 -0 -0 -0 -0 -0 -0 -1 -0 -0 -0 -0 -0 0 0 0 -0 nan
nan 0 0 0 0 -0 -0 0 0 -0 -0 -0 -0 -0 -0 -0 -0 -0 0 0 -0 -0 -0 -0 -0 -0 -0 -0 -0 -0 -0 -0 -0 -0 -0 0 0 nan
nan 0 -0 0 -0 -0 -0 0 0 -0 -0 -0 -0 -0 -0 -0 -0 -0 -0 0 0 -0 -0 -0 -0 -0 -0 -0 -0 -0 -0 0 -0 0 0 -0 -0 nan
nan 0 -0 -0 -0 0 0 0 0 0 0 -0 -0 -0 0 0 0 0 -0 -0 0 0 -0 -1 -0 -0 0 -0 -0 0 0 -0 -0 0 0 0 0 nan
nan nan nan nan nan nan nan nan nan nan nan nan nan nan nan nan nan nan nan nan nan nan nan nan nan nan nan nan nan nan nan nan nan nan nan nan nan nan
Wind_Speed
25 24 25 24 17 13 16 21 23 23 26 22 20 32 35 40 48 41 34 37 37 30 35 33 29 28 26 24 22 24 25 25 26 27 27 26 21 20
24 23 21 17 16 13 13 10 16 18 23 23 26 29 32 33 32 32 34 37 31 32 34 33 33 30 27 24 25 26 28 27 27 26 23 23 24 19
21 21 21 21 20 18 15 13 11 15 16 19 22 25 28 29 40 42 42 37 35 32 32 34 33 34 30 31 31 32 31 28 23 21 21 23 24 24
19 18 18 17 17 16 16 17 17 17 15 11 17 16 17 22 24 34 34 34 37 34 34 37 36 38 34 34 32 31 30 29 27 23 24 23 22 22
18 16 16 16 14 14 16 17 18 17 16 19 17 15 14 20 23 23 25 37 39 38 33 40 42 40 36 33 27 29 27 28 23 23 22 24 24 21
16 15 13 12 12 12 14 15 16 15 15 16 17 18 20 20 23 25 23 20 29 38 34 39 38 36 35 34 29 27 27 27 25 25 26 25 25 24
18 16 13 11 10 11 9 9 11 11 11 13 14 16 17 19 21 24 25 25 26 29 34 35 35 33 32 29 27 21 23 25 24 24 24 25 25 24
22 21 17 16 14 11 10 8 7 8 9 9 9 11 13 14 17 21 25 28 30 30 30 28 29 30 30 30 27 28 33 26 23 24 26 25 25 24
20 18 16 16 13 14 12 10 10 9 8 8 7 7 8 9 10 12 16 20 26 29 28 29 29 27 27 26 25 25 24 24 25 28 28 29 28 26
20 18 16 15 14 12 11 12 12 11 9 7 5 4 4 3 5 6 9 11 14 18 22 21 26 29 31 31 29 28 23 23 25 28 28 26 25 26
24 23 17 13 13 11 10 11 12 11 10 9 9 7 5 4 1 2 4 7 10 13 16 19 22 23 25 28 29 30 25 25 27 27 30 28 26 25
19 19 13 12 10 10 9 10 10 9 7 6 5 5 5 6 5 4 2 2 6 8 12 14 17 16 16 22 24 24 23 25 28 28 29 27 26 26
14 14 14 13 12 9 7 6 6 7 6 5 4 3 2 1 0 1 1 1 2 3 7 8 11 14 18 16 15 22 25 26 29 30 31 30 28 28
13 13 13 7 6 8 6 6 6 5 3 3 3 2 1 2 4 6 6 6 7 7 9 9 10 11 13 15 19 21 22 28 29 30 30 31 34 35
13 11 7 5 4 4 3 3 4 4 3 3 2 3 4 3 4 5 7 9 11 11 10 11 13 15 16 17 19 22 22 26 29 28 31 35 38 37
11 10 9 8 7 7 6 6 6 5 3 3 3 4 4 5 6 7 7 8 10 10 12 14 16 16 17 20 21 23 26 26 26 25 27 29 31 32
8 8 6 5 4 3 3 4 5 4 3 3 2 0 3 5 7 8 9 9 8 10 9 12 14 15 18 20 20 20 22 22 23 24 25 28 30 30
9 9 7 6 5 5 4 4 3 2 2 2 1 2 2 3 3 4 7 7 7 8 10 11 13 15 16 20 22 23 23 22 22 22 22 23 26 28
7 6 5 3 2 2 2 1 1 2 3 3 3 5 5 5 6 7 8 8 8 9 11 13 14 15 14 17 14 16 20 19 17 16 17 19 21 21
7 5 5 4 3 3 3 2 3 3 3 4 5 7 9 9 10 10 9 10 11 12 13 15 16 16 17 20 21 20 20 22 22 21 22 23 24 28
12 11 8 7 7 6 4 2 1 3 4 5 7 8 10 12 12 13 14 15 13 13 15 16 16 18 20 22 21 19 18 16 17 21 22 21 22 24
17 15 12 10 9 8 7 6 4 3 3 5 7 9 11 13 15 16 17 17 16 15 16 19 19 22 23 20 22 21 20 21 23 24 25 27 26 26
21 17 15 13 13 13 11 9 7 6 6 7 10 12 14 16 17 18 19 19 20 20 19 18 17 17 19 23 22 21 21 26 27 30 32 31 33 35
Wind_Direction
215 216 219 228 231 226 229 224 217 203 203 203 205 214 201 191 197 195 199 208 211 221 220 222 219 209 211 207 226 207 201 201 199 198 196 188 185 187
204 212 213 212 212 216 223 229 233 220 206 204 196 195 188 180 187 204 211 215 211 198 196 201 204 206 210 214 217 217 216 218 216 212 207 203 198 199
198 204 212 213 204 204 209 212 213 218 210 214 213 204 207 194 198 199 202 199 199 203 202 209 208 208 206 208 208 209 213 220 227 217 203 208 212 209
187 190 194 196 201 201 200 205 213 219 217 205 217 231 232 217 201 193 197 199 200 200 205 213 218 212 210 207 210 216 223 226 228 222 215 213 216 218
167 171 178 184 190 190 195 198 202 210 215 220 218 218 230 229 221 205 197 198 202 202 207 199 203 209 210 215 225 228 228 230 233 230 221 219 221 223
149 154 159 172 182 189 199 206 206 204 206 210 212 210 214 219 220 219 213 199 192 201 201 195 192 195 198 206 219 231 231 234 233 228 231 233 232 232
123 124 125 136 149 162 170 178 187 192 203 207 205 201 203 206 208 212 208 206 199 195 196 201 209 208 203 206 211 219 235 234 235 237 239 240 239 238
116 115 115 117 112 125 134 148 158 160 173 184 193 199 205 212 211 212 213 212 217 212 211 208 210 216 222 222 222 226 232 232 253 249 243 242 243 240
112 111 114 107 113 117 122 127 125 130 144 159 172 183 190 201 211 216 217 221 223 224 224 223 223 225 226 230 236 232 223 227 236 243 251 251 249 246
108 102 103 105 104 105 106 111 108 108 109 119 133 150 157 173 196 213 223 228 231 236 238 242 240 242 245 245 243 240 227 229 235 240 243 245 243 242
112 108 101 99 105 102 111 111 108 101 102 99 102 103 103 104 133 201 237 241 242 246 245 250 254 257 256 253 246 235 223 232 239 243 248 246 245 249
128 118 98 87 102 114 112 106 110 112 119 115 106 102 106 108 99 104 119 224 258 275 273 264 265 262 267 260 254 241 239 235 241 245 248 245 246 250
136 126 114 116 110 100 129 136 122 110 102 100 105 99 90 25 60 201 201 217 245 268 284 288 279 273 260 265 268 248 242 241 244 244 246 246 249 248
152 145 129 153 165 115 176 159 162 166 160 147 123 113 137 207 231 256 267 262 262 264 273 280 280 278 274 266 267 261 258 245 243 244 247 244 242 245
146 144 149 163 149 147 192 176 183 182 184 207 225 236 243 248 266 268 270 271 269 269 270 264 272 273 273 270 272 274 271 264 259 256 255 256 257 258
132 129 129 122 117 114 106 99 99 105 135 193 223 240 252 262 268 265 273 276 276 276 266 264 260 260 261 267 268 266 272 270 268 263 260 255 254 256
154 147 144 141 132 126 114 83 69 71 85 93 94 55 272 275 279 281 277 282 286 276 278 276 267 261 256 258 262 268 266 269 266 266 266 269 271 274
169 160 165 160 150 133 110 92 75 55 66 51 3 309 300 297 306 311 290 289 281 282 280 282 280 276 274 266 260 259 260 265 265 266 267 268 272 275
187 182 175 168 174 178 164 158 245 263 277 276 296 310 314 314 304 295 291 297 288 279 275 278 283 284 285 278 274 285 274 266 273 270 267 267 271 270
212 221 257 259 251 252 262 267 272 288 309 305 297 292 290 291 291 290 290 286 281 281 285 285 285 283 276 277 279 276 269 276 280 275 270 268 267 269
241 256 256 256 255 253 238 233 290 324 334 329 320 313 303 294 288 286 283 280 291 286 282 282 277 273 280 285 282 281 283 273 265 267 277 279 278 279
247 250 251 252 241 218 209 205 212 245 294 311 314 311 304 297 289 281 276 279 281 281 282 286 287 280 275 270 271 272 276 278 281 283 276 273 273 276
244 244 243 242 227 217 215 218 223 240 272 297 305 307 304 299 293 285 277 272 272 274 279 282 287 284 272 264 264 269 272 280 289 287 284 282 281 279
Height
1462 1466 1469 1474 1477 1480 1484 1487 1488 1492 1497 1499 1505 1508 1511 1512 1514 1520 1528 1535 1540 1544 1548 1550 1554 1558 1561 1565 1567 1575 1577 1579 1582 1585 1586 1590 1594 1597
1459 1463 1465 1470 1475 1479 1482 1483 1487 1489 1494 1497 1500 1505 1508 1510 1515 1521 1526 1532 1537 1539 1544 1546 1549 1553 1559 1562 1565 1570 1573 1575 1578 1580 1584 1588 1588 1594
1456 1459 1462 1466 1472 1476 1478 1480 1486 1490 1491 1496 1500 1502 1506 1508 1512 1515 1520 1525 1532 1538 1541 1544 1547 1550 1555 1558 1563 1565 1569 1572 1575 1578 1580 1584 1586 1588
1455 1458 1461 1466 1469 1471 1474 1477 1484 1488 1490 1493 1499 1502 1507 1511 1512 1513 1517 1523 1529 1535 1539 1541 1545 1549 1552 1555 1560 1563 1565 1569 1574 1576 1576 1579 1583 1584
1453 1455 1459 1464 1467 1469 1473 1477 1480 1482 1487 1489 1495 1498 1502 1509 1513 1513 1516 1519 1523 1528 1532 1535 1541 1546 1548 1552 1556 1559 1560 1567 1571 1575 1576 1575 1579 1580
1454 1455 1459 1464 1466 1470 1473 1476 1476 1480 1484 1486 1490 1494 1500 1504 1509 1514 1518 1521 1522 1526 1529 1530 1535 1540 1542 1547 1550 1555 1558 1563 1567 1569 1571 1573 1574 1576
1452 1456 1462 1466 1466 1469 1471 1475 1475 1475 1481 1485 1489 1491 1497 1501 1504 1509 1513 1519 1522 1523 1525 1528 1533 1537 1538 1541 1545 1550 1555 1560 1562 1563 1565 1569 1571 1571
1455 1461 1466 1466 1469 1469 1470 1475 1476 1476 1479 1484 1488 1493 1496 1500 1501 1505 1509 1514 1519 1520 1523 1525 1529 1532 1536 1538 1542 1545 1549 1554 1557 1558 1562 1564 1565 1566
1461 1463 1466 1468 1470 1471 1472 1476 1474 1478 1481 1485 1489 1494 1496 1497 1500 1503 1507 1510 1513 1517 1520 1522 1525 1527 1530 1533 1537 1539 1542 1546 1550 1554 1557 1559 1559 1560
1465 1468 1468 1471 1474 1474 1477 1479 1479 1482 1485 1487 1491 1494 1497 1498 1499 1502 1505 1507 1511 1514 1517 1519 1521 1524 1526 1529 1531 1533 1535 1539 1543 1546 1548 1551 1552 1552
1469 1469 1472 1475 1476 1478 1482 1481 1482 1486 1489 1491 1494 1497 1498 1498 1500 1502 1504 1508 1510 1512 1514 1515 1516 1518 1521 1522 1525 1527 1530 1533 1537 1539 1541 1542 1546 1548
1469 1472 1478 1476 1478 1481 1481 1484 1486 1488 1492 1494 1496 1498 1500 1500 1501 1503 1504 1507 1510 1511 1513 1515 1515 1516 1518 1518 1519 1522 1525 1527 1531 1533 1535 1537 1539 1541
1472 1476 1479 1479 1479 1480 1482 1485 1490 1490 1492 1494 1495 1499 1501 1501 1501 1503 1504 1506 1509 1510 1511 1513 1514 1515 1516 1517 1516 1518 1520 1523 1525 1526 1529 1530 1534 1536
1475 1478 1480 1480 1481 1483 1485 1487 1491 1490 1492 1495 1494 1498 1501 1503 1503 1504 1506 1506 1506 1508 1511 1512 1513 1513 1514 1515 1517 1518 1517 1518 1520 1520 1522 1523 1524 1528
1477 1478 1479 1482 1483 1484 1486 1487 1488 1488 1488 1492 1495 1499 1502 1502 1501 1501 1502 1502 1505 1506 1508 1509 1510 1512 1512 1512 1513 1513 1514 1515 1515 1515 1515 1517 1518 1520
1478 1478 1481 1483 1485 1487 1488 1488 1487 1485 1487 1491 1495 1498 1499 1500 1500 1498 1500 1504 1505 1504 1504 1505 1507 1508 1508 1509 1510 1510 1510 1511 1509 1509 1510 1509 1510 1511
1481 1481 1482 1485 1487 1488 1487 1484 1482 1485 1488 1491 1494 1496 1496 1497 1498 1496 1497 1501 1501 1500 1502 1502 1503 1504 1503 1504 1505 1505 1506 1506 1505 1504 1503 1503 1503 1503
1482 1483 1485 1486 1486 1485 1483 1482 1485 1488 1490 1492 1493 1494 1493 1495 1495 1492 1496 1498 1499 1499 1499 1501 1500 1500 1499 1501 1500 1501 1501 1502 1501 1499 1498 1496 1496 1497
1479 1480 1481 1481 1481 1482 1482 1482 1486 1489 1490 1491 1493 1491 1491 1491 1491 1492 1494 1495 1495 1496 1498 1498 1498 1497 1497 1497 1499 1496 1496 1496 1495 1493 1492 1491 1490 1490
1475 1476 1479 1478 1479 1479 1480 1481 1485 1487 1486 1486 1486 1488 1488 1488 1491 1492 1491 1493 1494 1493 1494 1494 1495 1495 1494 1493 1491 1491 1490 1491 1489 1488 1487 1485 1482 1481
1473 1475 1475 1475 1476 1476 1478 1480 1481 1483 1483 1484 1485 1485 1486 1489 1488 1485 1487 1489 1489 1486 1488 1489 1490 1489 1487 1485 1485 1485 1486 1485 1484 1482 1480 1479 1475 1475
1470 1471 1471 1473 1475 1475 1477 1480 1483 1483 1483 1485 1486 1486 1486 1487 1485 1486 1486 1485 1484 1485 1485 1485 1484 1482 1482 1482 1482 1481 1480 1479 1478 1476 1474 1473 1471 1468
1465 1467 1468 1471 1472 1474 1477 1478 1480 1482 1483 1482 1483 1484 1485 1484 1482 1481 1480 1480 1481 1481 1481 1480 1478 1477 1477 1477 1477 1475 1473 1471 1470 1467 1465 1466 1463 1460